Hourly Data Report for September 11, 2017

All times are specified in Local Standard Time (LST). Add 1 hour to adjust for Daylight Saving Time where and when it is observed.

WINNIPEG A CS
MANITOBA

49°55'00.000" N
97°14'58.000" W
238.70 m
502S001
71849
XWG

Download Data

Hourly Data (September 2017)
Hourly Data Report for September 11, 2017
Temp Definition
°C
Dew Point Temp Definition
°C
Rel Hum Definition
%
Wind Dir Definition
10's deg

Wind Spd Definition
km/h
Visibility Definition
km
Stn Press Definition
kPa
Hmdx Definition


Wind Chill Definition


Weather Definition


TIME
00:00 17.9 10.0 60 29 15   98.54     LegendNANA
01:00 12.8 8.3 74 28 14   98.59     LegendNANA
02:00 13.7 7.7 67 24 9   98.63     LegendNANA
03:00 13.2 6.3 63 26 15   98.69     LegendNANA
04:00 12.7 5.0 59 25 15   98.71     LegendNANA
05:00 11.1 5.4 68 28 16   98.78     LegendNANA
06:00 11.4 4.1 61 26 16   98.85     LegendNANA
07:00 12.2 4.1 58 25 16   98.91     LegendNANA
08:00 16.0 3.4 43 27 21   98.93     LegendNANA
09:00 18.8 3.7 37 28 19   98.95     LegendNANA
10:00 21.3 4.0 32 28 19   98.98     LegendNANA
11:00 22.6 3.5 29 29 26   98.98     LegendNANA
12:00 24.1 2.5 24 28 26   98.91     LegendNANA
13:00 25.4 1.3 21 29 26   98.85     LegendNANA
14:00 26.9 1.0 19 28 24   98.79 25   LegendNANA
15:00 26.8 0.5 18 26 26   98.72 25   LegendNANA
16:00 26.6 1.6 20 25 21   98.68 25   LegendNANA
17:00 25.8 2.3 22 25 15   98.64     LegendNANA
18:00 24.2 2.4 24 23 13   98.58     LegendNANA
19:00 22.2 2.2 27 21 11   98.54     LegendNANA
20:00 20.5 2.1 30 22 13   98.53     LegendNANA
21:00 21.4 2.6 29 21 19   98.50     LegendNANA
22:00 20.5 2.1 29 20 21   98.43     LegendNANA
23:00 19.4 2.4 32 18 19   98.37     LegendNANA

Notes on Data Quality.

Legend

  • E = Estimated
  • M = Missing
  • NA = Not Available
  • ‡ = Partner data that is not subject to review by the National Climate Archives
Date modified: